Flag for Germany Weather past 2 weeks in Düren, North Rhine-Westphalia, Germany

Now
63 °F

Thunderstorms. Broken clouds.


Feels Like: 63 °F
Forecast: 58 / 74 °F
Wind: 1 mph from West

Location: Noervenich

Current Time: Sep 19, 2014 at 5:02:40 PM

Latest Report: Sep 19, 2014 at 4:20 PM


Visibility: N/A

Pressure: 29.89 "Hg

Humidity: 100%

Dew point: 63 °F

Location of DürenLocation

Historic Weather in Düren — Graph

°F

Düren temperature yesterday

Maximum temperature yesterday: 73 °F (at 5:20 PM)
Minimum temperature yesterday: 59 °F (at 4:20 AM)
Average temperature yesterday: 65 °F

Past Weeks' High & Low Weather Summary

 TemperatureHumidityPressure
High77 °F (Sep 19, 2:20 PM)100% (Sep 6, 3:20 AM)30.24 "Hg (Sep 6, 3:20 AM)
Low46 °F (Sep 12, 6:20 AM)50% (Sep 17, 3:20 PM)29.83 "Hg (Sep 18, 4:20 AM)
Average62 °F81%30.03 "Hg
* Reported Sep 4 3:20 PM — Sep 19 3:20 PM, Düren, Weather by CustomWeather, © 2014

Note: Actual official high and low records may vary slightly from our data, if they occured in-between our weather recording intervals... More about our weather records

Advertising

Düren weather history for previous 24 hours

 ConditionsComfort  
Time TempWeatherWind HumidityBarometerVisibility
3:20 PM
Sep 19
68 °FStrong thunderstorms. Fog.6 mph88%29.89 "Hg1 mi
3:04 PM72 °FThunderstorms. Partly sunny.5 mph73%29.86 "HgN/A
2:20 PM77 °FBroken clouds.1 mph61%29.89 "HgN/A
1:20 PM75 °FBroken clouds.2 mph65%29.89 "HgN/A
12:20 PM73 °FBroken clouds.5 mph69%29.89 "HgN/A
11:20 AM72 °FPartly sunny.5 mph69%29.89 "HgN/A
10:20 AM70 °FBroken clouds.No wind73%29.89 "HgN/A
8:20 AM63 °FBroken clouds.3 mph88%29.86 "HgN/A
7:20 AM61 °FPassing clouds.3 mph94%29.86 "HgN/A
6:20 AM59 °FPassing clouds.1 mph94%29.83 "HgN/A
5:20 AM61 °FPassing clouds.No wind94%29.83 "HgN/A
4:20 AM61 °FPassing clouds.3 mph88%29.83 "HgN/A
3:20 AM59 °FPassing clouds.2 mph94%29.83 "HgN/A
2:20 AM61 °FPassing clouds.1 mph94%29.83 "HgN/A
1:20 AM63 °FPassing clouds.No wind94%29.83 "HgN/A
12:20 AM64 °FPassing clouds.1 mph88%29.86 "HgN/A
11:20 PM
Sep 18
66 °FPartly cloudy.2 mph83%29.86 "HgN/A
10:20 PM68 °FPassing clouds.2 mph78%29.83 "HgN/A
9:20 PM68 °FPassing clouds.7 mph83%29.83 "HgN/A
8:20 PM70 °FBroken clouds.3 mph78%29.83 "HgN/A
7:20 PM70 °FPartly sunny.5 mph78%29.83 "HgN/A
6:20 PM72 °FBroken clouds.5 mph73%29.83 "HgN/A
5:20 PM73 °FBroken clouds.3 mph69%29.83 "HgN/A
5:00 PM72 °FBroken clouds.5 mph73%29.83 "HgN/A
Weather by CustomWeather, © 2014

See weather overviewHow to use our weather pages